#timestamp,LO_Frequency,Hit,StdDev 
1637334015.5,286047000.1,N
1637334035.3,286046994.9,N
1637334055.2,286047000.4,N
1637334075.9,286046993.1,N
1637334095.8,286046989.1,N
1637334115.6,286046990.9,N
1637334135.4,286046992.8,N
1637334155.3,286046991.5,N
1637334175.1,286046991.6,N
1637334195.8,286046989.8,N
1637334215.7,286046989.7,N
1637334235.5,286046990.4,N
1637334255.4,286046995.2,N
1637334275.2,286046994.3,N
1637334295.0,286046992.1,N
1637334295.9,286046992.1,N
1637334315.8,286047000.9,N
1637334335.6,286046992.2,N
1637334355.5,286046989.2,N
1637334375.3,286046988.4,N
1637334395.1,286046984.0,N
1637334415.9,286046983.0,N
1637334435.7,286046986.6,N
1637334455.5,286046989.1,N
1637334475.4,286046989.0,N
1637334495.2,286046991.7,N
1637334515.1,286046997.5,N
1637334516.0,286046997.5,N
1637334535.8,286046997.9,N
1637334555.6,286046997.6,N
1637334575.5,286046994.8,N
1637334595.3,286046989.8,N
1637334615.1,286046989.7,N
1637334635.9,286046995.6,N
1637334655.7,286046992.0,N
1637334675.6,286046989.9,N
1637334695.4,286046992.9,N
1637334715.2,286046993.6,N
1637334735.1,286046996.5,N
1637334736.0,286046996.5,N
1637334755.8,286047000.8,N
1637334775.7,286047000.3,N
1637334795.5,286047005.9,N
1637334815.3,286047005.7,N
1637334835.2,286047004.7,N
1637334855.9,286047004.9,N
1637334875.7,286047005.3,N
1637334895.6,286047005.5,N
1637334915.4,286047005.9,N
1637334935.3,286047005.3,N
1637334955.1,286047004.9,N
1637334956.0,286047004.9,N
1637334975.8,286047005.0,N
1637334995.7,286047009.1,N
1637335015.5,286047009.6,N
1637335035.3,286047008.5,N
1637335055.2,286047007.1,N
1637335075.0,286047005.6,N
1637335075.9,286047005.6,N
1637335095.8,286047005.9,N
1637335115.6,286047003.5,N
1637335135.4,286047006.3,N
1637335155.3,286047003.1,N
1637335175.1,286047005.9,N
1637335195.8,286047004.0,N
1637335215.7,286047001.3,N
1637335235.5,286047004.0,N
1637335255.4,286047001.9,N
1637335275.2,286047003.7,N
1637335295.1,286046999.8,N
1637335296.0,286046999.8,N
1637335315.8,286047006.9,N
1637335335.6,286047007.6,Y
1637335355.5,286047004.4,P
1637335375.3,286047005.0,P
1637335395.1,286047005.2,P
1637335415.9,286047007.7,Y
1637335435.7,286047002.0,P
1637335455.6,286047002.2,N
1637335475.4,286047001.2,N
1637335495.2,286046998.7,N
1637335515.1,286046999.1,N
1637335516.0,286046999.1,N
1637335535.8,286046995.6,N
1637335555.7,286046995.8,N
1637335575.5,286046995.6,N
1637335595.3,286046998.3,N
1637335615.2,286046996.0,N
1637335635.0,286046995.4,N
1637335635.9,286046995.4,N
1637335655.7,286046999.3,N
1637335675.6,286047001.5,N
1637335695.4,286047001.3,N
1637335715.3,286047000.9,N
1637335735.1,286046998.7,N
1637335736.0,286046998.7,N
1637335755.8,286046997.4,N
1637335775.7,286046997.7,N
1637335795.5,286046999.7,N
1637335815.3,286046997.0,N
1637335835.2,286046999.8,N
1637335855.0,286046999.3,N
1637335855.9,286046999.3,N
1637335875.8,286046998.2,N
1637335895.6,286047001.2,N
1637335915.4,286046997.7,N
1637335935.3,286046993.6,N
1637335955.1,286046990.8,Y
1637335975.8,286046991.2,P
1637335995.7,286046990.4,N
1637336015.5,286046996.3,N
1637336035.4,286046993.5,N
1637336055.2,286046991.3,N
1637336075.0,286046990.4,Y
1637336075.9,286046990.4,P
1637336095.8,286046996.9,N
1637336115.6,286046997.1,N
1637336135.5,286046998.9,N
1637336155.3,286046998.3,N
1637336175.1,286046994.9,N
1637336195.9,286046994.0,N
1637336215.7,286046993.5,N
1637336235.5,286046997.9,N
1637336255.4,286046997.7,N
1637336275.2,286046995.4,N
1637336295.0,286046993.7,N
1637336295.9,286046993.7,N
1637336315.8,286046994.3,N
1637336335.6,286046993.5,N
1637336355.5,286046996.3,N
1637336375.3,286046993.4,Y
1637336395.2,286047003.5,P
1637336415.0,286047003.0,N
1637336415.9,286047003.0,N
1637336435.7,286047008.7,N
1637336455.6,286047001.7,N
1637336475.4,286046998.8,N
1637336495.3,286047003.9,N
1637336515.1,286047004.1,N
1637336516.0,286047004.1,N
1637336535.8,286047001.3,N
1637336555.7,286047007.4,N
1637336575.5,286047008.5,N
1637336595.3,286047005.2,N
1637336615.2,286047010.3,N
1637336635.0,286047010.0,N
1637336635.9,286047010.0,N
1637336655.8,286047010.6,N
1637336675.6,286047008.2,N
1637336695.4,286047003.0,N
1637336715.3,286047005.2,N
1637336735.1,286047012.1,Y
1637336755.9,286047002.9,P
1637336775.7,286047004.4,P
1637336795.5,286046997.1,P
1637336815.4,286046999.3,N
1637336835.2,286047000.8,N
1637336855.0,286047001.0,N
1637336855.9,286047001.0,N
1637336875.8,286047002.2,N
1637336895.6,286046996.6,N
1637336915.5,286046993.7,N
1637336935.3,286046996.3,N
1637336955.1,286046994.1,N
1637336975.9,286046995.0,N
1637336995.7,286046992.5,N
1637337015.6,286046996.8,N
1637337035.4,286047000.2,N
1637337055.2,286046999.3,N
1637337075.1,286046999.3,N
1637337076.0,286046999.3,N
1637337095.8,286046996.8,N
1637337115.6,286046996.0,N
1637337135.5,286046992.4,N
1637337155.3,286046996.1,N
1637337175.2,286047000.7,N
1637337195.9,286046996.9,N
1637337215.7,286046998.3,N
1637337235.6,286046993.4,N
1637337255.4,286046990.6,N
1637337275.3,286046996.1,N
1637337295.1,286046995.9,N
1637337296.0,286046995.9,N
1637337315.8,286046991.8,N
1637337335.7,286046993.5,N
1637337355.5,286046996.0,N
1637337375.3,286046993.3,N
1637337395.2,286046992.3,N
1637337415.0,286046995.7,N
1637337415.9,286046995.7,N
1637337435.8,286046992.0,Y
1637337455.6,286046997.0,P
1637337475.4,286046999.1,N
1637337495.3,286047002.1,N
1637337515.1,286047004.8,N
1637337535.8,286047005.8,N
1637337555.7,286047008.8,N
1637337575.5,286047006.5,N
1637337595.4,286047010.5,N
